Regional Weather Roundup
Issued by NWS

Home | Current Version | Previous Version | Text Only | Print | Product List | Glossary Off
Versions: 1 2 3 4 5 6 7 8 9 10 11 12 13 14 15 16 17 18 19 20 21 22 23 24 25 26 27 28 29 30 31 32 33 34 35 36 37 38 39 40 41 42 43 44 45 46 47 48 49 50

000
ASUS43 KBIS 050610
RWRND

NORTH DAKOTA REGIONAL WEATHER ROUNDUP
NATIONAL WEATHER SERVICE BISMARCK ND
100 AM CDT TUE MAY 05 2015

NOTE: "FAIR" INDICATES FEW OR NO CLOUDS BELOW 12,000 FEET WITH NO
SIGNIFICANT WEATHER AND/OR OBSTRUCTIONS TO VISIBILITY.


NDZ001>003-009>011-017-050700-
NORTHWEST NORTH DAKOTA

CITY           SKY/WX    TMP DP  RH WIND       PRES   REMARKS
WILLISTON      CLEAR     54  32  43 S12       30.02F
6HR MIN TEMP:  54; 6HR MAX TEMP:  69;

MINOT          CLOUDY    54  32  43 E9        30.09R
MINOT AFB      CLOUDY    55  34  45 S6        30.08R
$$

NDZ018>021-031>035-040>046-050700-
SOUTHWEST NORTH DAKOTA

CITY           SKY/WX    TMP DP  RH WIND       PRES   REMARKS
BISMARCK       CLOUDY    53  32  44 SE5       30.12S
6HR MIN TEMP:  47; 6HR MAX TEMP:  67;

DICKINSON      CLEAR     44  29  55 SE12      30.04F
GARRISON         N/A     51  34  52 SE6       30.10S
6HR MIN TEMP:  49; 6HR MAX TEMP:  67;

HETTINGER ARPT MOCLDY    50  27  40 SE12      30.08F
$$

NDZ004>008-012>016-024-026-027-054-050700-
NORTHEAST NORTH DAKOTA

CITY           SKY/WX    TMP DP  RH WIND       PRES   REMARKS
GRAND FORKS    CLEAR     44  27  51 S5        30.17R
GRND FRKS AFB  CLEAR     48  26  41 S9        30.17R
DEVILS LAKE    CLEAR     52  34  50 SE8       30.14F
$$

NDZ022-023-025-028>030-036>039-047>053-050700-
SOUTHEAST NORTH DAKOTA

CITY           SKY/WX    TMP DP  RH WIND       PRES   REMARKS
FARGO          CLEAR     46  24  42 SE6       30.18S
6HR MIN TEMP:  46; 6HR MAX TEMP:  68;

JAMESTOWN      CLEAR     49  26  41 SE8       30.16S
$$




USA.gov is the U.S. government's official web portal to all federal, state and local government web resources and services.